Time,TemperatureF,DewpointF,PressureIn,WindDirection,WindDirectionDegrees,WindSpeedMPH,WindSpeedGustMPH,Humidity,HourlyPrecipIn,Conditions,Clouds,dailyrainin,SoftwareType,DateUTC
2016-02-06 00:00:00,34.2,25.7,30.40,ENE,68,0.0,0.0,71,0.00,CLR,FEW,0.00,WeatherDisplay:10.37,2016-02-05 23:00:00,
2016-02-06 00:05:00,34.2,25.7,30.40,West,270,1.2,0.0,71,0.00,CLR,FEW,0.00,WeatherDisplay:10.37,2016-02-05 23:05:00,
2016-02-06 00:10:00,34.0,25.6,30.40,WNW,292,0.0,0.0,71,0.00,CLR,FEW,0.00,WeatherDisplay:10.37,2016-02-05 23:10:00,
2016-02-06 00:15:00,34.7,26.3,30.40,WNW,292,2.3,2.3,71,0.00,CLR,FEW,0.00,WeatherDisplay:10.37,2016-02-05 23:15:00,
2016-02-06 00:20:00,35.4,26.3,30.40,WNW,292,4.6,4.6,69,0.00,CLR,FEW,0.00,WeatherDisplay:10.37,2016-02-05 23:20:00,
2016-02-06 00:25:00,35.8,26.2,30.40,WNW,292,2.3,2.3,68,0.00,CLR,FEW,0.00,WeatherDisplay:10.37,2016-02-05 23:25:00,
2016-02-06 00:30:00,36.1,26.2,30.40,West,270,3.6,3.6,67,0.00,CLR,FEW,0.00,WeatherDisplay:10.37,2016-02-05 23:30:00,
2016-02-06 00:35:00,36.3,26.4,30.41,WNW,292,4.6,4.6,67,0.00,CLR,FEW,0.00,WeatherDisplay:10.37,2016-02-05 23:35:00,
2016-02-06 00:40:00,36.5,26.2,30.40,West,270,2.3,2.3,66,0.00,CLR,FEW,0.00,WeatherDisplay:10.37,2016-02-05 23:40:00,
2016-02-06 00:45:00,36.7,26.4,30.41,ENE,68,2.3,2.3,66,0.00,CLR,FEW,0.00,WeatherDisplay:10.37,2016-02-05 23:45:00,
2016-02-06 00:50:00,36.0,26.1,30.41,SE,135,0.0,0.0,67,0.00,CLR,FEW,0.00,WeatherDisplay:10.37,2016-02-05 23:50:00,
2016-02-06 00:55:00,35.2,25.7,30.40,SE,135,0.0,0.0,68,0.00,CLR,FEW,0.00,WeatherDisplay:10.37,2016-02-05 23:55:00,
2016-02-06 01:00:00,34.7,25.2,30.41,SE,135,0.0,0.0,68,0.00,CLR,FEW,0.00,WeatherDisplay:10.37,2016-02-06 00:00:00,
2016-02-06 01:05:00,34.3,25.2,30.41,SE,135,0.0,0.0,69,0.00,CLR,FEW,0.00,WeatherDisplay:10.37,2016-02-06 00:05:00,
2016-02-06 01:10:00,34.3,25.9,30.40,ENE,68,0.0,0.0,71,0.00,CLR,FEW,0.00,WeatherDisplay:10.37,2016-02-06 00:10:00,
2016-02-06 01:15:00,34.0,25.9,30.41,ESE,112,0.0,0.0,72,0.00,CLR,FEW,0.00,WeatherDisplay:10.37,2016-02-06 00:15:00,
2016-02-06 01:20:00,33.8,25.4,30.41,ESE,112,0.0,0.0,71,0.00,CLR,FEW,0.00,WeatherDisplay:10.37,2016-02-06 00:20:00,
2016-02-06 01:30:00,33.4,25.7,30.41,ESE,112,0.0,0.0,73,0.00,CLR,FEW,0.00,WeatherDisplay:10.37,2016-02-06 00:30:00,
2016-02-06 01:35:00,33.1,25.4,30.41,East,90,0.0,0.0,73,0.00,CLR,FEW,0.00,WeatherDisplay:10.37,2016-02-06 00:35:00,
2016-02-06 01:40:00,33.1,25.4,30.41,ESE,112,0.0,0.0,73,0.00,CLR,FEW,0.00,WeatherDisplay:10.37,2016-02-06 00:40:00,
2016-02-06 01:45:00,33.1,25.7,30.41,ESE,112,0.0,0.0,74,0.00,CLR,FEW,0.00,WeatherDisplay:10.37,2016-02-06 00:45:00,
2016-02-06 01:50:00,32.9,25.5,30.40,ESE,112,0.0,0.0,74,0.00,CLR,FEW,0.00,WeatherDisplay:10.37,2016-02-06 00:50:00,
2016-02-06 01:55:00,32.7,25.3,30.40,ESE,112,0.0,0.0,74,0.00,CLR,FEW,0.00,WeatherDisplay:10.37,2016-02-06 00:55:00,
2016-02-06 02:00:00,32.9,25.5,30.40,ESE,112,0.0,0.0,74,0.00,CLR,FEW,0.00,WeatherDisplay:10.37,2016-02-06 01:00:00,
2016-02-06 02:05:00,32.9,25.5,30.40,ESE,112,0.0,0.0,74,0.00,CLR,FEW,0.00,WeatherDisplay:10.37,2016-02-06 01:05:00,
2016-02-06 02:10:00,33.1,26.0,30.40,ESE,112,0.0,0.0,75,0.00,CLR,FEW,0.00,WeatherDisplay:10.37,2016-02-06 01:10:00,
2016-02-06 02:15:00,33.3,26.2,30.40,ESE,112,0.0,0.0,75,0.00,CLR,FEW,0.00,WeatherDisplay:10.37,2016-02-06 01:15:00,
2016-02-06 02:20:00,33.4,26.4,30.39,ESE,112,0.0,0.0,75,0.00,CLR,FEW,0.00,WeatherDisplay:10.37,2016-02-06 01:20:00,
2016-02-06 02:25:00,33.3,26.2,30.39,ESE,112,0.0,0.0,75,0.00,CLR,FEW,0.00,WeatherDisplay:10.37,2016-02-06 01:25:00,
2016-02-06 02:30:00,33.1,26.3,30.40,ESE,112,0.0,0.0,76,0.00,CLR,FEW,0.00,WeatherDisplay:10.37,2016-02-06 01:30:00,
2016-02-06 02:35:00,33.1,26.3,30.40,WSW,248,0.0,0.0,76,0.00,CLR,FEW,0.00,WeatherDisplay:10.37,2016-02-06 01:35:00,
2016-02-06 02:40:00,33.1,26.3,30.40,WSW,248,0.0,0.0,76,0.00,CLR,FEW,0.00,WeatherDisplay:10.37,2016-02-06 01:40:00,
2016-02-06 02:45:00,33.3,26.5,30.39,SSW,202,0.0,0.0,76,0.00,CLR,FEW,0.00,WeatherDisplay:10.37,2016-02-06 01:45:00,
2016-02-06 02:55:00,33.3,26.5,30.39,SSE,158,0.0,0.0,76,0.00,CLR,FEW,0.00,WeatherDisplay:10.37,2016-02-06 01:55:00,
2016-02-06 03:00:00,33.3,27.1,30.39,SSE,158,0.0,0.0,78,0.00,CLR,FEW,0.00,WeatherDisplay:10.37,2016-02-06 02:00:00,
2016-02-06 03:05:00,33.4,26.7,30.39,SSE,158,0.0,0.0,76,0.00,CLR,FEW,0.00,WeatherDisplay:10.37,2016-02-06 02:05:00,
2016-02-06 03:10:00,33.4,27.3,30.39,SSE,158,0.0,0.0,78,0.00,CLR,FEW,0.00,WeatherDisplay:10.37,2016-02-06 02:10:00,
2016-02-06 03:15:00,33.6,27.5,30.38,SE,135,0.0,0.0,78,0.00,CLR,FEW,0.00,WeatherDisplay:10.37,2016-02-06 02:15:00,
2016-02-06 03:20:00,33.6,27.5,30.39,SSE,158,0.0,0.0,78,0.00,CLR,FEW,0.00,WeatherDisplay:10.37,2016-02-06 02:20:00,
2016-02-06 03:25:00,33.6,27.5,30.39,ESE,112,0.0,0.0,78,0.00,CLR,FEW,0.00,WeatherDisplay:10.37,2016-02-06 02:25:00,
2016-02-06 03:30:00,33.4,27.3,30.38,ESE,112,0.0,0.0,78,0.00,CLR,FEW,0.00,WeatherDisplay:10.37,2016-02-06 02:30:00,
2016-02-06 03:35:00,33.4,27.3,30.39,ESE,112,0.0,0.0,78,0.00,CLR,FEW,0.00,WeatherDisplay:10.37,2016-02-06 02:35:00,
2016-02-06 03:40:00,33.4,27.3,30.38,ESE,112,0.0,0.0,78,0.00,CLR,FEW,0.00,WeatherDisplay:10.37,2016-02-06 02:40:00,
2016-02-06 03:50:00,33.6,27.5,30.39,ESE,112,0.0,0.0,78,0.00,CLR,FEW,0.00,WeatherDisplay:10.37,2016-02-06 02:50:00,
2016-02-06 03:55:00,33.6,27.5,30.39,ESE,112,0.0,0.0,78,0.00,CLR,FEW,0.00,WeatherDisplay:10.37,2016-02-06 02:55:00,
2016-02-06 04:00:00,33.6,27.5,30.39,ESE,112,0.0,0.0,78,0.00,CLR,FEW,0.00,WeatherDisplay:10.37,2016-02-06 03:00:00,
2016-02-06 04:05:00,33.6,27.5,30.38,ESE,112,0.0,0.0,78,0.00,CLR,FEW,0.00,WeatherDisplay:10.37,2016-02-06 03:05:00,
2016-02-06 04:10:00,33.6,27.5,30.38,ESE,112,0.0,0.0,78,0.00,CLR,FEW,0.00,WeatherDisplay:10.37,2016-02-06 03:10:00,